Weather History for Kabul, Afghanistan

Change the Weather History Date:

Tuesday, February 5, 2013

  Actual Average Record
Temperature  
Mean Temperature 29 °F -  
Max Temperature 37 °F 44 °F - ()
Min Temperature 21 °F 24 °F - ()
Degree Days  
Heating Degree Days 36    
Moisture  
Dew Point 23 °F    
Average Humidity 81    
Maximum Humidity 100    
Minimum Humidity 52    
Precipitation  
Precipitation 0.00 in 0.08 in - ()
Sea Level Pressure  
Sea Level Pressure 29.98 in    
Wind  
Wind Speed 5 mph ()    
Max Wind Speed 9 mph    
Max Gust Speed -    
Visibility 4.5 miles    
Events Snow    
T = Trace of Precipitation, MM = Missing Value Source: Averaged Metar Reports

Daily Weather History Graph

Daily Weather History Graph

Search for Another Location

Airport:

Trip Planner

Search our weather history database for the weather conditions in past years. The results will help you decide how hot, cold, wet, or windy it might be!

Date:

Astronomy

Feb. 05, 2013 Rise Set
Actual Time 6:48 AM AFT 5:26 PM AFT
Civil Twilight 6:21 AM AFT 5:52 PM AFT
Nautical Twilight 5:52 AM AFT 6:22 PM AFT
Astronomical Twilight 5:22 AM AFT 6:52 PM AFT
Moon 1:57 AM AFT (2/5) 12:23 PM AFT (2/5)
Length of Visible Light 11h 30m
Length of Day
10h 38m
Waning Crescent, 31% of the Moon is Illuminated
Feb 5
Waning Crescent
Feb 10
New
Feb 18
First Quarter
Feb 26
Full
Mar 5
Last Quarter

Hourly Weather History & Observations

Time (AFT) Temp. Windchill Dew Point Humidity Pressure Visibility Wind Dir Wind Speed Gust Speed Precip Events Conditions
12:20 AM 24.8 °F 20.5 °F 23.0 °F 93% 30.01 in 5.0 mi NW 3.5 mph - N/A   Mostly Cloudy
1:20 AM 24.8 °F 19.1 °F 23.0 °F 93% 30.01 in 3.7 mi ESE 4.6 mph - N/A   Mostly Cloudy
2:20 AM 23.0 °F 17.0 °F 23.0 °F 100% 29.98 in - ESE 4.6 mph - N/A   Mostly Cloudy
3:20 AM 24.8 °F 16.9 °F 24.8 °F 100% 29.98 in 3.7 mi South 6.9 mph - N/A   Mostly Cloudy
4:20 AM 23.0 °F 18.4 °F 23.0 °F 100% 29.95 in 3.1 mi NNW 3.5 mph - N/A   Scattered Clouds
5:20 AM 21.2 °F 12.6 °F 19.4 °F 93% 29.92 in 5.0 mi North 6.9 mph - N/A   Scattered Clouds
6:20 AM 21.2 °F 12.6 °F 19.4 °F 93% 29.92 in 5.6 mi North 6.9 mph - N/A   Scattered Clouds
7:20 AM 24.8 °F 15.3 °F 21.2 °F 86% 29.92 in 6.2 mi NW 9.2 mph - N/A   Mostly Cloudy
8:20 AM 26.6 °F 20.0 °F 23.0 °F 86% 29.95 in 3.7 mi NNW 5.8 mph - N/A   Unknown
8:52 AM 26.6 °F 20.0 °F 23.0 °F 86% 29.95 in 3.1 mi NW 5.8 mph - N/A   Mist
9:20 AM 28.4 °F 21.2 °F 23.0 °F 80% 29.95 in 1.9 mi NNW 6.9 mph - N/A   Mist
10:20 AM 33.8 °F 29.6 °F 23.0 °F 65% 29.92 in 4.3 mi NW 4.6 mph - N/A   Unknown
11:20 AM 35.6 °F 31.7 °F 19.4 °F 52% 29.89 in - SW 4.6 mph - N/A   Clear
12:20 PM 33.8 °F 27.0 °F 23.0 °F 65% 29.86 in - NW 8.1 mph - N/A   Clear
1:20 PM 37.4 °F 33.8 °F 21.2 °F 52% 29.86 in 6.2 mi NW 4.6 mph - N/A   Mostly Cloudy
2:20 PM 35.6 °F 29.9 °F 21.2 °F 56% 29.86 in 6.2 mi WNW 6.9 mph - N/A   Mostly Cloudy
3:20 PM 35.6 °F 30.7 °F 21.2 °F 56% 29.89 in 6.2 mi North 5.8 mph - N/A   Mostly Cloudy
4:20 PM 33.8 °F 28.6 °F 19.4 °F 56% 29.92 in 6.2 mi WSW 5.8 mph - N/A   Mostly Cloudy
5:20 PM 33.8 °F 27.0 °F 21.2 °F 60% 29.98 in 3.7 mi SE 8.1 mph - N/A   Mostly Cloudy
6:20 PM 32.0 °F 25.6 °F 26.6 °F 80% 30.04 in 3.7 mi SE 6.9 mph - N/A   Mostly Cloudy
7:20 PM 30.2 °F - 28.4 °F 93% 30.06 in 3.7 mi SSW 2.3 mph - N/A Snow Snow Grains
8:20 PM 28.4 °F 21.2 °F 26.6 °F 93% 30.12 in 3.7 mi NW 6.9 mph - N/A   Mostly Cloudy
9:20 PM 28.4 °F 24.6 °F 26.6 °F 93% 30.12 in 5.0 mi Variable 3.5 mph - N/A   Mostly Cloudy
10:20 PM 28.4 °F 24.6 °F 26.6 °F 93% 30.15 in 5.0 mi NNE 3.5 mph - N/A   Mostly Cloudy
11:20 PM 28.4 °F 21.2 °F 26.6 °F 93% 30.18 in 5.0 mi NNW 6.9 mph - N/A   Mostly Cloudy